User: anonymous   Login
Location: Unspecified
(53.5279°N, 0.0000°E)
Time: 19:23:36
(UTC+00:00)
Language:

Envisat - Orbit

View from above orbital plane
View from above orbital plane
View from above satellite
View from above satellite

Ground track
Ground track

The orbit data is extracted from the following two-line orbital elements,

1 27386U 02009A   20273.03230597  .00000037  00000-0  25641-4 0  9992
2 27386  98.1394 274.6451 0001217  87.0796 338.1068 14.37993334973508
Epoch (UTC): 29 September 2020 00:46:31
Eccentricity: 0.0001217
inclination: 98.1394°
perigee height: 764 km
apogee height: 766 km
right ascension of ascending node: 274.6451°
argument of perigee: 87.0796°
revolutions per day: 14.37993334
mean anomaly at epoch: 338.1068°
orbit number at epoch: 97350

The dashed part of the orbit path shows where the satellite is in the earth's shadow,  

DLR